Location: Maccacari
(45.1333°N, 11.1333°E)
Time: 23:03:38
(UTC+00:00)

Cosmos 2151 Rocket - Pass Details

Date: 18 September 2020
Orbit: 618 x 642 km, 82.5° (Epoch: 25 October)

Event Time Altitude Azimuth Distance (km) Brightness Sun altitude
Rises 18:43:21 0° 175° (S) 2,897 6.8 -15.3°
Reaches altitude 10° 18:45:36 10° 170° (S) 1,999 5.9 -15.6°
Maximum altitude 18:49:54 53° 94° (E) 779 3.7 -16.3°
Drops below altitude 10° 18:54:17 10° 18° (NNE) 2,030 6.2 -17.1°
Sets 18:56:35 0° 14° (NNE) 2,947 7.1 -17.5°
